contact:dominique.lefevre@mio.osupytheas.fr, maurice.libes@osupytheas.fr
Project:EMSO Ligure-ouest http://www.emso-fr.org/EMSO-France
Sensor Aquadopp, line 04 Serial AQD8517 
DOI : "https://doi.org/10.17882/74513; https://doi.org/10.17882/83244" 
Title:EMSO Ligure Ouest : Data ligne ALBATROSS capteur AQUADOPP - deploiement 2021
Id,Date,Profondeur,Latitude,Longitude,X_East,Y_North,Z_Up,Amplitude_X,Amplitude_Y,Amplitude_Z,Batterie,SoundSpeed,Heading,Pitch,Roll,Pressure,Temperature,Speed,Direction
, , m, degrees North, degrees East, m.s-1, m.s-1,m.s-1, 1, 1, 1, Volt, m.s-1, degree, degree, degree, dbar, degree_C, m.s-1, degree
01,2021-12-20T21:30:00,500.0,42.79,6.0312,-0.009,0.036,0.019,51.0,51.0,47.0,12.5,1505.8,231.8,-0.1,0.6,452.15,13.63,0.037,346.0
01,2021-12-20T22:00:00,500.0,42.79,6.0312,0.002,0.025,0.0,49.0,45.0,45.0,12.5,1505.8,227.9,-0.2,0.7,452.07,13.63,0.025,4.6
01,2021-12-20T22:30:00,500.0,42.79,6.0312,-0.004,0.029,-0.016,50.0,45.0,44.0,12.5,1505.8,230.0,0.0,0.6,452.096,13.63,0.029,352.2
01,2021-12-20T23:00:00,500.0,42.79,6.0312,0.005,0.002,0.0,48.0,45.0,43.0,12.5,1505.8,263.0,-0.2,0.7,452.093,13.63,0.005,68.2
01,2021-12-20T23:30:00,500.0,42.79,6.0312,0.008,0.015,0.008,49.0,46.0,44.0,12.5,1505.8,242.4,-0.2,0.6,451.985,13.63,0.017,28.1
01,2021-12-21T00:00:00,500.0,42.79,6.0312,-0.003,0.006,0.01,53.0,45.0,43.0,12.5,1505.8,63.2,-0.1,0.6,452.011,13.63,0.006,333.4
01,2021-12-21T00:30:00,500.0,42.79,6.0312,0.01,-0.015,-0.01,44.0,43.0,50.0,12.5,1505.8,43.2,-0.1,0.7,452.025,13.64,0.018,146.3
01,2021-12-21T01:00:00,500.0,42.79,6.0312,-0.008,-0.011,0.006,50.0,46.0,43.0,12.5,1505.8,54.6,-0.2,0.6,452.051,13.64,0.013,216.0
01,2021-12-21T01:30:00,500.0,42.79,6.0312,-0.017,-0.016,-0.007,53.0,45.0,50.0,12.5,1505.8,88.4,-0.2,0.6,452.023,13.64,0.023,226.7
01,2021-12-21T02:00:00,500.0,42.79,6.0312,-0.021,-0.008,0.001,49.0,43.0,44.0,12.5,1505.8,84.2,-0.2,0.6,451.979,13.64,0.022,249.1
01,2021-12-21T02:30:00,500.0,42.79,6.0312,-0.031,-0.018,-0.005,51.0,44.0,46.0,12.5,1505.8,99.0,-0.2,0.7,451.997,13.64,0.035,239.9
01,2021-12-21T03:00:00,500.0,42.79,6.0312,-0.033,-0.021,0.01,49.0,46.0,45.0,12.5,1505.8,111.2,0.0,0.7,451.991,13.64,0.039,237.5
01,2021-12-21T03:30:00,500.0,42.79,6.0312,-0.035,-0.01,-0.005,49.0,45.0,44.0,12.5,1505.8,127.4,-0.1,0.7,452.056,13.63,0.036,254.1
01,2021-12-21T04:00:00,500.0,42.79,6.0312,-0.041,-0.027,0.016,48.0,46.0,45.0,12.5,1505.8,115.7,0.0,0.7,452.037,13.63,0.049,236.6
01,2021-12-21T04:30:00,500.0,42.79,6.0312,-0.042,-0.021,0.014,49.0,45.0,46.0,12.5,1505.8,122.6,-0.1,0.6,452.065,13.62,0.046,243.4
01,2021-12-21T05:00:00,500.0,42.79,6.0312,-0.053,0.003,0.006,50.0,46.0,43.0,12.5,1505.8,156.3,-0.2,0.6,452.085,13.62,0.053,273.2
01,2021-12-21T05:30:00,500.0,42.79,6.0312,-0.057,-0.006,-0.005,47.0,45.0,43.0,12.5,1505.8,159.7,-0.1,0.7,452.155,13.63,0.057,264.0
01,2021-12-21T06:00:00,500.0,42.79,6.0312,-0.06,-0.011,-0.017,48.0,45.0,44.0,12.5,1505.8,142.0,-0.1,0.7,452.127,13.62,0.06,259.6
01,2021-12-21T06:30:00,500.0,42.79,6.0312,-0.061,-0.006,0.018,49.0,45.0,45.0,12.5,1505.8,152.1,-0.2,0.7,452.189,13.63,0.061,264.4
01,2021-12-21T07:00:00,500.0,42.79,6.0312,-0.063,-0.001,0.008,48.0,44.0,44.0,12.5,1505.8,167.4,-0.1,0.7,452.199,13.62,0.063,269.1
01,2021-12-21T07:30:00,500.0,42.79,6.0312,-0.076,0.021,0.002,49.0,43.0,44.0,12.5,1505.8,176.9,-0.1,0.8,452.274,13.62,0.078,285.4
01,2021-12-21T08:00:00,500.0,42.79,6.0312,-0.067,-0.004,0.004,48.0,44.0,46.0,12.5,1505.8,159.7,-0.1,0.7,452.27,13.62,0.067,266.6
01,2021-12-21T08:30:00,500.0,42.79,6.0312,-0.062,0.04,0.011,47.0,44.0,43.0,12.5,1505.8,190.4,-0.1,0.8,452.271,13.63,0.073,302.8
01,2021-12-21T09:00:00,500.0,42.79,6.0312,-0.062,0.02,0.001,49.0,44.0,45.0,12.5,1505.8,174.6,0.0,0.7,452.368,13.62,0.065,287.9
01,2021-12-21T09:30:00,500.0,42.79,6.0312,-0.075,0.033,0.002,50.0,45.0,44.0,12.5,1505.8,175.7,-0.1,0.7,452.306,13.62,0.081,293.7
01,2021-12-21T10:00:00,500.0,42.79,6.0312,-0.032,0.064,0.012,48.0,44.0,45.0,12.5,1505.8,210.3,0.0,0.7,452.277,13.62,0.071,333.4
01,2021-12-21T10:30:00,500.0,42.79,6.0312,-0.046,0.061,0.007,50.0,44.0,46.0,12.5,1505.7,207.4,-0.1,0.7,452.259,13.61,0.076,323.0
01,2021-12-21T11:00:00,500.0,42.79,6.0312,-0.056,0.054,-0.003,48.0,43.0,44.0,12.5,1505.7,197.7,-0.1,0.6,452.226,13.6,0.077,314.0
01,2021-12-21T11:30:00,500.0,42.79,6.0312,-0.034,0.057,-0.002,47.0,45.0,46.0,12.5,1505.7,213.7,0.0,0.6,452.255,13.61,0.066,329.2
01,2021-12-21T12:00:00,500.0,42.79,6.0312,-0.02,0.054,0.01,49.0,44.0,43.0,12.5,1505.8,224.9,-0.1,0.7,452.217,13.62,0.057,339.7
01,2021-12-21T12:30:00,500.0,42.79,6.0312,-0.014,0.046,0.02,48.0,45.0,49.0,12.5,1505.8,221.3,-0.1,0.6,452.174,13.62,0.048,343.1
01,2021-12-21T13:00:00,500.0,42.79,6.0312,-0.015,0.051,0.01,46.0,46.0,45.0,12.5,1505.8,232.1,-0.1,0.6,452.126,13.62,0.053,343.6
01,2021-12-21T13:30:00,500.0,42.79,6.0312,-0.003,0.051,0.004,50.0,43.0,44.0,12.5,1505.8,230.3,0.0,0.6,452.135,13.62,0.051,356.6
01,2021-12-21T14:00:00,500.0,42.79,6.0312,0.011,0.031,-0.003,50.0,43.0,45.0,12.5,1505.8,247.6,-0.1,0.6,452.107,13.62,0.032,19.5
01,2021-12-21T14:30:00,500.0,42.79,6.0312,0.0,0.009,0.014,52.0,50.0,45.0,12.5,1505.8,231.8,-0.3,0.6,452.09,13.62,0.009,0.0
01,2021-12-21T15:00:00,500.0,42.79,6.0312,-0.003,0.012,0.012,48.0,46.0,42.0,12.5,1505.8,239.7,-0.1,0.6,452.106,13.62,0.012,346.0
01,2021-12-21T15:30:00,500.0,42.79,6.0312,-0.003,0.01,0.0,47.0,41.0,43.0,12.5,1505.8,242.1,-0.1,0.6,452.125,13.63,0.01,343.3
01,2021-12-21T16:00:00,500.0,42.79,6.0312,0.0,-0.007,0.01,49.0,40.0,44.0,12.5,1505.8,206.4,-0.1,0.7,452.087,13.62,0.007,180.0
01,2021-12-21T16:30:00,500.0,42.79,6.0312,0.001,-0.01,0.006,50.0,46.0,43.0,12.5,1505.7,163.0,-0.2,0.7,452.167,13.61,0.01,174.3
01,2021-12-21T17:00:00,500.0,42.79,6.0312,0.0,-0.021,0.005,50.0,47.0,42.0,12.5,1505.7,92.7,-0.2,0.6,452.122,13.61,0.021,180.0
01,2021-12-21T17:30:00,500.0,42.79,6.0312,-0.027,-0.008,0.004,47.0,47.0,42.0,12.5,1505.7,82.5,-0.1,0.7,452.131,13.61,0.028,253.5
01,2021-12-21T18:00:00,500.0,42.79,6.0312,-0.006,-0.017,0.012,48.0,43.0,45.0,12.5,1505.8,89.2,-0.1,0.6,452.113,13.62,0.018,199.4
01,2021-12-21T18:30:00,500.0,42.79,6.0312,-0.034,-0.01,0.0,47.0,47.0,47.0,12.5,1505.8,80.4,-0.1,0.7,452.155,13.63,0.035,253.6
01,2021-12-21T19:00:00,500.0,42.79,6.0312,-0.021,-0.046,0.005,48.0,45.0,44.0,12.5,1505.9,84.5,-0.1,0.7,452.15,13.65,0.05,204.5
01,2021-12-21T19:30:00,500.0,42.79,6.0312,-0.054,-0.018,0.012,50.0,44.0,44.0,12.5,1505.9,112.2,-0.1,0.7,452.187,13.65,0.056,251.6
01,2021-12-21T20:00:00,500.0,42.79,6.0312,-0.045,-0.033,0.013,49.0,45.0,44.0,12.5,1505.8,107.7,-0.1,0.8,452.215,13.63,0.055,233.7
01,2021-12-21T20:30:00,500.0,42.79,6.0312,-0.052,-0.018,0.009,47.0,44.0,42.0,12.5,1505.8,129.5,-0.2,0.6,452.199,13.62,0.055,250.9
01,2021-12-21T21:00:00,500.0,42.79,6.0312,-0.058,-0.013,0.021,49.0,44.0,45.0,12.5,1505.8,141.8,-0.1,0.6,452.202,13.62,0.059,257.4
